Zurück zum Katalog

COSMOS 2491 DEB

LostPO
NORAD 44913·DEBRIS·🇷🇺 Russia

Gestartet Dec 25, 2013 von Plesetsk Cosmodrome

Loading…

Nächste Überflüge (nächste 24 Stunden)

TLE

VeraltetSource: Space-Track

Epoche: Jan 27, 2020, 18:15 UTC

1 44913U 13076G   20027.76047500  .00001435  00000-0  91773-2 0  9990
2 44913  82.4669 182.7650 0057233 357.9465   2.0076 12.51219187  3124

Verfolge COSMOS 2491 DEB in Echtzeit mit AllMySat

Download on the App Store